Darstellungsparameter: Aktuell verwendete Einstellungen:
Skalierung der Graphiken ... ?
xyx+y,   Skalierungsfaktor:      Skalierung: Modus: x, Faktor: 1
Darstellungszeitraum ... ?
Vom - - bis: - -   Zeitraum: 23.07.2019 - 25.07.2019
Min/Max/Avg-Anzeige ... ?
Zeige MMA aktuell
Zeige MMA Monat
Zeige MMA alles
Zeige --A aktuell
Zeige --A Monat
Zeige --A alles
Keine MMA-Anzeige
MMA:
Minimum Maximum Average (ber die Originaldaten)
MMA-Basis: 23.07.2019 - 25.07.2019
Quicknavigation für Darstellung... ?
Tage:      1T, 2T, 3T, 5T -1T -2T -3T -5T +1T +2T +3T +5T
Wochen: 1W, 2W, 3W -1W -2W -3W +1W +2W +3W
Monate: 1M, 3M, 6M -1M -3M -6M +1M +3M +6M
Jahre:    1J, 3J, 5J, 10J -1J -3J -5J -10J +1J +3J +5J +10J
Nutze für die Darstellung ... ?
Originaldaten oder Mittelwerte auf ...
Stundenbasis Tagesbasis Wochenbasis
Monatsbasis Jahresbasis      Datenbasis: Original-Daten
Darstellen als:
Statistik (Auto) Statistik J:M      Darstellung:
Zur Graphik,    zurück zur Übersicht aller Sensoren.
 
Tabellarische Datenbersicht: ?
 
Sensor: Nr:Datum:Temp:Feuchte:Taupunkt:
Aussen-T/F 1 23-07-2019 00:00:00 20 C 75 % 15.43 C
2 23-07-2019 00:05:00 19.8 C 75 % 15.24 C
3 23-07-2019 00:10:00 19.8 C 75 % 15.24 C
4 23-07-2019 00:15:00 19.6 C 75 % 15.05 C
5 23-07-2019 00:20:00 19.5 C 76 % 15.16 C
6 23-07-2019 00:25:00 19.4 C 76 % 15.06 C
7 23-07-2019 00:30:00 19.3 C 76 % 14.97 C
8 23-07-2019 00:35:00 19.2 C 77 % 15.07 C
9 23-07-2019 00:40:00 19.2 C 77 % 15.07 C
10 23-07-2019 00:45:00 19.1 C 77 % 14.97 C
11 23-07-2019 00:50:00 19 C 78 % 15.08 C
12 23-07-2019 00:55:00 18.9 C 78 % 14.98 C
13 23-07-2019 01:00:00 18.8 C 78 % 14.88 C
14 23-07-2019 01:05:00 18.8 C 78 % 14.88 C
15 23-07-2019 01:10:00 18.7 C 79 % 14.99 C
16 23-07-2019 01:15:00 18.6 C 79 % 14.89 C
17 23-07-2019 01:20:00 18.5 C 80 % 14.99 C
18 23-07-2019 01:25:00 18.4 C 80 % 14.89 C
19 23-07-2019 01:30:00 18.3 C 80 % 14.79 C
20 23-07-2019 01:35:00 18.2 C 80 % 14.69 C
21 23-07-2019 01:40:00 18.2 C 81 % 14.89 C
22 23-07-2019 01:45:00 18.1 C 81 % 14.79 C
23 23-07-2019 01:50:00 18 C 81 % 14.69 C
24 23-07-2019 01:55:00 17.9 C 81 % 14.59 C
25 23-07-2019 02:00:00 17.9 C 81 % 14.59 C
Sensor: Nr:Datum:Temp:Feuchte:Taupunkt:
Aussen-T/F 26 23-07-2019 02:05:00 17.8 C 82 % 14.69 C
27 23-07-2019 02:10:00 17.8 C 82 % 14.69 C
28 23-07-2019 02:15:00 17.7 C 82 % 14.59 C
29 23-07-2019 02:20:00 17.7 C 82 % 14.59 C
30 23-07-2019 02:25:00 17.6 C 82 % 14.49 C
31 23-07-2019 02:30:00 17.5 C 83 % 14.58 C
32 23-07-2019 02:35:00 17.4 C 83 % 14.48 C
33 23-07-2019 02:40:00 17.4 C 83 % 14.48 C
34 23-07-2019 02:45:00 17.3 C 83 % 14.39 C
35 23-07-2019 02:50:00 17.3 C 83 % 14.39 C
36 23-07-2019 02:55:00 17.3 C 84 % 14.57 C
37 23-07-2019 03:00:00 17.2 C 84 % 14.47 C
38 23-07-2019 03:05:00 17.1 C 84 % 14.38 C
39 23-07-2019 03:10:00 16.9 C 84 % 14.18 C
40 23-07-2019 03:15:00 16.9 C 85 % 14.36 C
41 23-07-2019 03:20:00 16.9 C 85 % 14.36 C
42 23-07-2019 03:25:00 16.9 C 85 % 14.36 C
43 23-07-2019 03:30:00 16.8 C 85 % 14.26 C
44 23-07-2019 03:35:00 16.8 C 85 % 14.26 C
45 23-07-2019 03:40:00 16.7 C 86 % 14.35 C
46 23-07-2019 03:45:00 16.7 C 86 % 14.35 C
47 23-07-2019 03:50:00 16.6 C 86 % 14.25 C
48 23-07-2019 03:55:00 16.6 C 86 % 14.25 C
49 23-07-2019 04:00:00 16.6 C 86 % 14.25 C
50 23-07-2019 04:05:00 16.5 C 87 % 14.33 C
Sensor: Nr:Datum:Temp:Feuchte:Taupunkt:
Aussen-T/F 51 23-07-2019 04:10:00 16.4 C 87 % 14.23 C
52 23-07-2019 04:15:00 16.4 C 87 % 14.23 C
53 23-07-2019 04:20:00 16.3 C 87 % 14.13 C
54 23-07-2019 04:25:00 16.3 C 87 % 14.13 C
55 23-07-2019 04:30:00 16.2 C 88 % 14.21 C
56 23-07-2019 04:35:00 16.2 C 88 % 14.21 C
57 23-07-2019 04:40:00 16.2 C 88 % 14.21 C
58 23-07-2019 04:45:00 16.2 C 88 % 14.21 C
59 23-07-2019 04:50:00 16.1 C 88 % 14.11 C
60 23-07-2019 04:55:00 16.1 C 88 % 14.11 C
61 23-07-2019 05:00:00 16.1 C 88 % 14.11 C
62 23-07-2019 05:05:00 16 C 89 % 14.19 C
63 23-07-2019 05:10:00 16 C 89 % 14.19 C
64 23-07-2019 05:15:00 15.9 C 89 % 14.09 C
65 23-07-2019 05:20:00 15.9 C 89 % 14.09 C
66 23-07-2019 05:25:00 15.8 C 89 % 13.99 C
67 23-07-2019 05:30:00 15.8 C 89 % 13.99 C
68 23-07-2019 05:35:00 15.8 C 89 % 13.99 C
69 23-07-2019 05:40:00 15.7 C 89 % 13.89 C
70 23-07-2019 05:45:00 15.7 C 89 % 13.89 C
71 23-07-2019 05:50:00 15.6 C 90 % 13.97 C
72 23-07-2019 05:55:00 15.6 C 90 % 13.97 C
73 23-07-2019 06:00:00 15.6 C 90 % 13.97 C
74 23-07-2019 06:05:00 15.6 C 90 % 13.97 C
75 23-07-2019 06:10:00 15.6 C 91 % 14.14 C
Sensor: Nr:Datum:Temp:Feuchte:Taupunkt:
Aussen-T/F 76 23-07-2019 06:15:00 15.6 C 91 % 14.14 C
77 23-07-2019 06:20:00 15.6 C 91 % 14.14 C
78 23-07-2019 06:25:00 15.6 C 91 % 14.14 C
79 23-07-2019 06:30:00 15.7 C 91 % 14.24 C
80 23-07-2019 06:35:00 15.7 C 91 % 14.24 C
81 23-07-2019 06:40:00 15.7 C 91 % 14.24 C
82 23-07-2019 06:45:00 15.7 C 91 % 14.24 C
83 23-07-2019 06:50:00 15.7 C 91 % 14.24 C
84 23-07-2019 06:55:00 15.8 C 91 % 14.33 C
85 23-07-2019 07:00:00 15.8 C 91 % 14.33 C
86 23-07-2019 07:05:00 15.9 C 91 % 14.43 C
87 23-07-2019 07:10:00 16 C 91 % 14.53 C
88 23-07-2019 07:15:00 16.1 C 91 % 14.63 C
89 23-07-2019 07:20:00 16.1 C 91 % 14.63 C
90 23-07-2019 07:25:00 16.1 C 91 % 14.63 C
91 23-07-2019 07:30:00 16.1 C 91 % 14.63 C
92 23-07-2019 07:35:00 16.2 C 91 % 14.73 C
93 23-07-2019 07:40:00 16.2 C 91 % 14.73 C
94 23-07-2019 07:45:00 16.2 C 91 % 14.73 C
95 23-07-2019 07:50:00 16.3 C 91 % 14.83 C
96 23-07-2019 07:55:00 16.3 C 91 % 14.83 C
97 23-07-2019 08:00:00 16.4 C 91 % 14.93 C
98 23-07-2019 08:05:00 16.4 C 91 % 14.93 C
99 23-07-2019 08:10:00 16.5 C 91 % 15.03 C
100 23-07-2019 08:15:00 16.6 C 91 % 15.13 C
Sensor: Nr:Datum:Temp:Feuchte:Taupunkt:
Aussen-T/F 101 23-07-2019 08:20:00 16.7 C 91 % 15.22 C
102 23-07-2019 08:25:00 16.7 C 91 % 15.22 C
103 23-07-2019 08:30:00 16.8 C 91 % 15.32 C
104 23-07-2019 08:35:00 16.9 C 90 % 15.25 C
105 23-07-2019 08:40:00 17.1 C 90 % 15.45 C
106 23-07-2019 08:45:00 17.2 C 90 % 15.55 C
107 23-07-2019 08:50:00 17.3 C 90 % 15.64 C
108 23-07-2019 08:55:00 17.4 C 90 % 15.74 C
109 23-07-2019 09:00:00 17.6 C 90 % 15.94 C
110 23-07-2019 09:05:00 17.7 C 89 % 15.86 C
111 23-07-2019 09:10:00 17.8 C 89 % 15.96 C
112 23-07-2019 09:15:00 18.1 C 89 % 16.26 C
113 23-07-2019 09:20:00 18.3 C 88 % 16.28 C
114 23-07-2019 09:25:00 18.6 C 88 % 16.57 C
115 23-07-2019 09:30:00 18.8 C 87 % 16.59 C
116 23-07-2019 09:35:00 19 C 87 % 16.79 C
117 23-07-2019 09:40:00 19.2 C 86 % 16.8 C
118 23-07-2019 09:45:00 19.5 C 85 % 16.91 C
119 23-07-2019 09:50:00 19.8 C 84 % 17.02 C
120 23-07-2019 09:55:00 20.1 C 83 % 17.12 C
121 23-07-2019 10:00:00 20.4 C 83 % 17.42 C
122 23-07-2019 10:05:00 20.7 C 81 % 17.32 C
123 23-07-2019 10:10:00 21.1 C 80 % 17.51 C
124 23-07-2019 10:15:00 21.3 C 79 % 17.51 C
125 23-07-2019 10:20:00 21.6 C 79 % 17.8 C
Sensor: Nr:Datum:Temp:Feuchte:Taupunkt:
Aussen-T/F 126 23-07-2019 10:25:00 21.9 C 77 % 17.68 C
127 23-07-2019 10:30:00 22.3 C 77 % 18.07 C
128 23-07-2019 10:35:00 22.7 C 76 % 18.25 C
129 23-07-2019 10:40:00 23.2 C 73 % 18.09 C
130 23-07-2019 10:45:00 23.8 C 66 % 17.07 C
131 23-07-2019 10:50:00 24.8 C 66 % 18.01 C
132 23-07-2019 10:55:00 25.3 C 63 % 17.75 C
133 23-07-2019 11:00:00 25.6 C 61 % 17.52 C
134 23-07-2019 11:05:00 25.9 C 58 % 17 C
135 23-07-2019 11:10:00 26.4 C 57 % 17.19 C
136 23-07-2019 11:15:00 26.9 C 57 % 17.66 C
137 23-07-2019 11:20:00 27.1 C 57 % 17.85 C
138 23-07-2019 11:25:00 27.1 C 53 % 16.7 C
139 23-07-2019 11:30:00 27.4 C 53 % 16.97 C
140 23-07-2019 11:35:00 27.8 C 51 % 16.73 C
141 23-07-2019 11:40:00 28.1 C 49 % 16.38 C
142 23-07-2019 11:45:00 28.4 C 48 % 16.33 C
143 23-07-2019 11:50:00 28.7 C 47 % 16.27 C
144 23-07-2019 11:55:00 28.8 C 49 % 17.02 C
145 23-07-2019 12:00:00 28.9 C 47 % 16.45 C
146 23-07-2019 12:05:00 29.1 C 45 % 15.95 C
147 23-07-2019 12:10:00 29.2 C 46 % 16.39 C
148 23-07-2019 12:15:00 29.3 C 45 % 16.13 C
149 23-07-2019 12:20:00 29.4 C 46 % 16.57 C
150 23-07-2019 12:25:00 29.5 C 44 % 15.96 C
Sensor: Nr:Datum:Temp:Feuchte:Taupunkt:
Aussen-T/F 151 23-07-2019 12:30:00 29.6 C 44 % 16.05 C
152 23-07-2019 12:35:00 29.8 C 42 % 15.51 C
153 23-07-2019 12:40:00 29.9 C 43 % 15.96 C
154 23-07-2019 12:45:00 30 C 42 % 15.69 C
155 23-07-2019 12:50:00 30.2 C 43 % 16.23 C
156 23-07-2019 12:55:00 30.2 C 41 % 15.49 C
157 23-07-2019 13:00:00 30.3 C 41 % 15.58 C
158 23-07-2019 13:05:00 30.3 C 42 % 15.95 C
159 23-07-2019 13:10:00 30.4 C 41 % 15.67 C
160 23-07-2019 13:15:00 30.6 C 40 % 15.46 C
161 23-07-2019 13:20:00 30.6 C 40 % 15.46 C
162 23-07-2019 13:25:00 30.7 C 40 % 15.55 C
163 23-07-2019 13:30:00 30.8 C 40 % 15.64 C
164 23-07-2019 13:35:00 30.9 C 39 % 15.33 C
165 23-07-2019 13:40:00 31.1 C 38 % 15.1 C
166 23-07-2019 13:45:00 31.2 C 40 % 15.99 C
167 23-07-2019 13:50:00 31.2 C 40 % 15.99 C
168 23-07-2019 13:55:00 31.3 C 38 % 15.28 C
169 23-07-2019 14:00:00 31.3 C 39 % 15.69 C
170 23-07-2019 14:05:00 31.4 C 38 % 15.37 C
171 23-07-2019 14:10:00 31.7 C 39 % 16.04 C
172 23-07-2019 14:15:00 31.9 C 38 % 15.81 C
173 23-07-2019 14:20:00 32.1 C 38 % 15.99 C
174 23-07-2019 14:25:00 32.2 C 37 % 15.66 C
175 23-07-2019 14:30:00 32.3 C 36 % 15.32 C
Sensor: Nr:Datum:Temp:Feuchte:Taupunkt:
Aussen-T/F 176 23-07-2019 14:35:00 32.3 C 36 % 15.32 C
177 23-07-2019 14:40:00 32.4 C 36 % 15.41 C
178 23-07-2019 14:45:00 32.5 C 36 % 15.5 C
179 23-07-2019 14:50:00 32.6 C 37 % 16.01 C
180 23-07-2019 14:55:00 32.7 C 36 % 15.67 C
181 23-07-2019 15:00:00 32.8 C 37 % 16.19 C
182 23-07-2019 15:05:00 33.1 C 38 % 16.87 C
183 23-07-2019 15:10:00 33.2 C 37 % 16.54 C
184 23-07-2019 15:15:00 33.4 C 36 % 16.29 C
185 23-07-2019 15:20:00 33.6 C 36 % 16.46 C
186 23-07-2019 15:25:00 33.8 C 34 % 15.74 C
187 23-07-2019 15:30:00 33.8 C 34 % 15.74 C
188 23-07-2019 15:35:00 34 C 34 % 15.92 C
189 23-07-2019 15:40:00 34.4 C 34 % 16.26 C
190 23-07-2019 15:45:00 34.7 C 34 % 16.53 C
191 23-07-2019 15:50:00 34.9 C 33 % 16.23 C
192 23-07-2019 15:55:00 35.2 C 34 % 16.96 C
193 23-07-2019 16:00:00 35.5 C 32 % 16.27 C
194 23-07-2019 16:05:00 35.6 C 32 % 16.35 C
195 23-07-2019 16:10:00 35.6 C 30 % 15.34 C
196 23-07-2019 16:15:00 35.6 C 33 % 16.84 C
197 23-07-2019 16:20:00 35.8 C 31 % 16.03 C
198 23-07-2019 16:25:00 35.9 C 31 % 16.11 C
199 23-07-2019 16:30:00 36.1 C 30 % 15.77 C
200 23-07-2019 16:35:00 36 C 31 % 16.2 C
Sensor: Nr:Datum:Temp:Feuchte:Taupunkt:
Aussen-T/F 201 23-07-2019 16:40:00 35.8 C 31 % 16.03 C
202 23-07-2019 16:45:00 35.8 C 30 % 15.52 C
203 23-07-2019 16:50:00 35.8 C 30 % 15.52 C
204 23-07-2019 16:55:00 36.1 C 30 % 15.77 C
205 23-07-2019 17:00:00 36.1 C 29 % 15.24 C
206 23-07-2019 17:05:00 36.3 C 30 % 15.94 C
207 23-07-2019 17:10:00 36.4 C 29 % 15.5 C
208 23-07-2019 17:15:00 36.3 C 28 % 14.87 C
209 23-07-2019 17:20:00 36.3 C 29 % 15.41 C
210 23-07-2019 17:25:00 36.4 C 29 % 15.5 C
211 23-07-2019 17:30:00 36.4 C 29 % 15.5 C
212 23-07-2019 17:35:00 36.5 C 28 % 15.04 C
213 23-07-2019 17:40:00 36.6 C 28 % 15.12 C
214 23-07-2019 17:45:00 36.6 C 28 % 15.12 C
215 23-07-2019 17:50:00 36.3 C 28 % 14.87 C
216 23-07-2019 17:55:00 36.4 C 29 % 15.5 C
217 23-07-2019 18:00:00 36.7 C 30 % 16.29 C
218 23-07-2019 18:05:00 36.8 C 28 % 15.29 C
219 23-07-2019 18:10:00 36.8 C 28 % 15.29 C
220 23-07-2019 18:15:00 36.7 C 29 % 15.76 C
221 23-07-2019 18:20:00 37 C 28 % 15.46 C
222 23-07-2019 18:25:00 36.9 C 27 % 14.81 C
223 23-07-2019 18:30:00 36.8 C 28 % 15.29 C
224 23-07-2019 18:35:00 36.8 C 29 % 15.84 C
225 23-07-2019 18:40:00 36.9 C 29 % 15.93 C
Sensor: Nr:Datum:Temp:Feuchte:Taupunkt:
Aussen-T/F 226 23-07-2019 18:45:00 36.9 C 27 % 14.81 C
227 23-07-2019 18:50:00 36.6 C 29 % 15.67 C
228 23-07-2019 18:55:00 36.3 C 29 % 15.41 C
229 23-07-2019 19:00:00 36.2 C 29 % 15.33 C
230 23-07-2019 19:05:00 36.2 C 29 % 15.33 C
231 23-07-2019 19:10:00 36.3 C 29 % 15.41 C
232 23-07-2019 19:15:00 36.3 C 30 % 15.94 C
233 23-07-2019 19:20:00 36.1 C 28 % 14.7 C
234 23-07-2019 19:25:00 35.8 C 31 % 16.03 C
235 23-07-2019 19:30:00 35.6 C 30 % 15.34 C
236 23-07-2019 19:35:00 35.4 C 31 % 15.68 C
237 23-07-2019 19:40:00 35.2 C 30 % 15 C
238 23-07-2019 19:45:00 35 C 33 % 16.32 C
239 23-07-2019 19:50:00 34.9 C 36 % 17.6 C
240 23-07-2019 19:55:00 34.7 C 34 % 16.53 C
241 23-07-2019 20:00:00 34.5 C 33 % 15.88 C
242 23-07-2019 20:05:00 34.3 C 35 % 16.63 C
243 23-07-2019 20:10:00 34.2 C 38 % 17.84 C
244 23-07-2019 20:15:00 33.9 C 39 % 17.99 C
245 23-07-2019 20:20:00 33.6 C 39 % 17.73 C
246 23-07-2019 20:25:00 33.3 C 40 % 17.86 C
247 23-07-2019 20:30:00 32.8 C 45 % 19.3 C
248 23-07-2019 20:35:00 32.3 C 42 % 17.74 C
249 23-07-2019 20:40:00 31.7 C 42 % 17.21 C
250 23-07-2019 20:45:00 31.2 C 44 % 17.49 C
Sensor: Nr:Datum:Temp:Feuchte:Taupunkt:
Aussen-T/F 251 23-07-2019 20:50:00 30.7 C 45 % 17.4 C
252 23-07-2019 20:55:00 30.2 C 46 % 17.3 C
253 23-07-2019 21:00:00 29.7 C 47 % 17.18 C
254 23-07-2019 21:05:00 29.4 C 48 % 17.24 C
255 23-07-2019 21:10:00 29.1 C 48 % 16.97 C
256 23-07-2019 21:15:00 28.8 C 49 % 17.02 C
257 23-07-2019 21:20:00 28.4 C 50 % 16.97 C
258 23-07-2019 21:25:00 28.1 C 50 % 16.7 C
259 23-07-2019 21:30:00 27.7 C 51 % 16.64 C
260 23-07-2019 21:35:00 27.4 C 52 % 16.67 C
261 23-07-2019 21:40:00 27.2 C 52 % 16.49 C
262 23-07-2019 21:45:00 26.9 C 52 % 16.21 C
263 23-07-2019 21:50:00 26.8 C 53 % 16.42 C
264 23-07-2019 21:55:00 26.6 C 52 % 15.94 C
265 23-07-2019 22:00:00 26.5 C 53 % 16.14 C
266 23-07-2019 22:05:00 26.4 C 53 % 16.05 C
267 23-07-2019 22:10:00 26.2 C 54 % 16.16 C
268 23-07-2019 22:15:00 25.8 C 56 % 16.36 C
269 23-07-2019 22:20:00 25.6 C 57 % 16.45 C
270 23-07-2019 22:25:00 25.2 C 57 % 16.08 C
271 23-07-2019 22:30:00 25 C 58 % 16.16 C
272 23-07-2019 22:35:00 24.8 C 60 % 16.51 C
273 23-07-2019 22:40:00 24.6 C 60 % 16.32 C
274 23-07-2019 22:45:00 24.3 C 61 % 16.3 C
275 23-07-2019 22:50:00 24.1 C 62 % 16.37 C
Sensor: Nr:Datum:Temp:Feuchte:Taupunkt:
Aussen-T/F 276 23-07-2019 22:55:00 23.9 C 63 % 16.43 C
277 23-07-2019 23:00:00 23.7 C 63 % 16.24 C
278 23-07-2019 23:05:00 23.5 C 64 % 16.3 C
279 23-07-2019 23:10:00 23.3 C 65 % 16.35 C
280 23-07-2019 23:15:00 23.2 C 65 % 16.26 C
281 23-07-2019 23:20:00 23.1 C 66 % 16.4 C
282 23-07-2019 23:25:00 23 C 66 % 16.31 C
283 23-07-2019 23:30:00 22.9 C 66 % 16.21 C
284 23-07-2019 23:35:00 22.8 C 66 % 16.12 C
285 23-07-2019 23:40:00 22.7 C 67 % 16.26 C
286 23-07-2019 23:45:00 22.5 C 68 % 16.3 C
287 23-07-2019 23:50:00 22.3 C 68 % 16.11 C
288 23-07-2019 23:55:00 22.2 C 68 % 16.01 C
289 24-07-2019 00:00:00 22.1 C 69 % 16.15 C
290 24-07-2019 00:05:00 21.9 C 70 % 16.18 C
291 24-07-2019 00:10:00 21.8 C 70 % 16.09 C
292 24-07-2019 00:15:00 21.7 C 70 % 15.99 C
293 24-07-2019 00:20:00 21.6 C 71 % 16.12 C
294 24-07-2019 00:25:00 21.4 C 71 % 15.93 C
295 24-07-2019 00:30:00 21.4 C 72 % 16.14 C
296 24-07-2019 00:35:00 21.3 C 72 % 16.05 C
297 24-07-2019 00:40:00 21.2 C 73 % 16.17 C
298 24-07-2019 00:45:00 21.1 C 73 % 16.07 C
299 24-07-2019 00:50:00 20.9 C 73 % 15.88 C
300 24-07-2019 00:55:00 20.9 C 74 % 16.09 C
Sensor: Nr:Datum:Temp:Feuchte:Taupunkt:
Aussen-T/F 301 24-07-2019 01:00:00 20.8 C 74 % 16 C
302 24-07-2019 01:05:00 20.7 C 76 % 16.32 C
303 24-07-2019 01:10:00 20.7 C 76 % 16.32 C
304 24-07-2019 01:15:00 20.6 C 76 % 16.22 C
305 24-07-2019 01:20:00 20.6 C 76 % 16.22 C
306 24-07-2019 01:25:00 20.4 C 76 % 16.03 C
307 24-07-2019 01:30:00 20.3 C 77 % 16.14 C
308 24-07-2019 01:35:00 20.2 C 77 % 16.04 C
309 24-07-2019 01:40:00 20.1 C 77 % 15.94 C
310 24-07-2019 01:45:00 19.9 C 77 % 15.75 C
311 24-07-2019 01:50:00 19.8 C 77 % 15.65 C
312 24-07-2019 01:55:00 19.7 C 78 % 15.76 C
313 24-07-2019 02:00:00 19.7 C 78 % 15.76 C
314 24-07-2019 02:05:00 19.6 C 78 % 15.66 C
315 24-07-2019 02:10:00 19.5 C 78 % 15.56 C
316 24-07-2019 02:15:00 19.5 C 78 % 15.56 C
317 24-07-2019 02:20:00 19.4 C 78 % 15.47 C
318 24-07-2019 02:25:00 19.4 C 79 % 15.66 C
319 24-07-2019 02:30:00 19.3 C 79 % 15.57 C
320 24-07-2019 02:35:00 19.2 C 79 % 15.47 C
321 24-07-2019 02:40:00 19.1 C 80 % 15.57 C
322 24-07-2019 02:45:00 19.1 C 80 % 15.57 C
323 24-07-2019 02:50:00 19 C 80 % 15.47 C
324 24-07-2019 02:55:00 18.9 C 81 % 15.57 C
325 24-07-2019 03:00:00 18.9 C 81 % 15.57 C
Sensor: Nr:Datum:Temp:Feuchte:Taupunkt:
Aussen-T/F 326 24-07-2019 03:05:00 19.1 C 81 % 15.76 C
327 24-07-2019 03:10:00 19.1 C 80 % 15.57 C
328 24-07-2019 03:15:00 18.9 C 80 % 15.38 C
329 24-07-2019 03:20:00 18.8 C 80 % 15.28 C
330 24-07-2019 03:25:00 18.7 C 81 % 15.37 C
331 24-07-2019 03:30:00 18.6 C 82 % 15.47 C
332 24-07-2019 03:35:00 18.5 C 83 % 15.56 C
333 24-07-2019 03:40:00 18.4 C 83 % 15.46 C
334 24-07-2019 03:45:00 18.3 C 83 % 15.36 C
335 24-07-2019 03:50:00 18.2 C 83 % 15.27 C
336 24-07-2019 03:55:00 18.1 C 84 % 15.35 C
337 24-07-2019 04:00:00 18.1 C 84 % 15.35 C
338 24-07-2019 04:05:00 18 C 84 % 15.26 C
339 24-07-2019 04:10:00 17.9 C 84 % 15.16 C
340 24-07-2019 04:15:00 17.9 C 84 % 15.16 C
341 24-07-2019 04:20:00 17.8 C 84 % 15.06 C
342 24-07-2019 04:25:00 17.8 C 84 % 15.06 C
343 24-07-2019 04:30:00 17.8 C 85 % 15.25 C
344 24-07-2019 04:35:00 17.7 C 85 % 15.15 C
345 24-07-2019 04:40:00 17.7 C 85 % 15.15 C
346 24-07-2019 04:45:00 17.6 C 85 % 15.05 C
347 24-07-2019 04:50:00 17.5 C 85 % 14.95 C
348 24-07-2019 04:55:00 17.4 C 86 % 15.03 C
349 24-07-2019 05:00:00 17.4 C 86 % 15.03 C
350 24-07-2019 05:05:00 17.4 C 86 % 15.03 C
Sensor: Nr:Datum:Temp:Feuchte:Taupunkt:
Aussen-T/F 351 24-07-2019 05:10:00 17.3 C 86 % 14.94 C
352 24-07-2019 05:15:00 17.3 C 87 % 15.12 C
353 24-07-2019 05:20:00 17.3 C 87 % 15.12 C
354 24-07-2019 05:25:00 17.2 C 87 % 15.02 C
355 24-07-2019 05:30:00 17.2 C 87 % 15.02 C
356 24-07-2019 05:35:00 17.2 C 88 % 15.2 C
357 24-07-2019 05:40:00 17.2 C 88 % 15.2 C
358 24-07-2019 05:45:00 17.1 C 88 % 15.1 C
359 24-07-2019 05:50:00 17.1 C 87 % 14.92 C
360 24-07-2019 05:55:00 17.1 C 88 % 15.1 C
361 24-07-2019 06:00:00 17.1 C 88 % 15.1 C
362 24-07-2019 06:05:00 17.1 C 88 % 15.1 C
363 24-07-2019 06:10:00 17.1 C 88 % 15.1 C
364 24-07-2019 06:15:00 17.1 C 88 % 15.1 C
365 24-07-2019 06:20:00 17 C 88 % 15 C
366 24-07-2019 06:25:00 17.1 C 88 % 15.1 C
367 24-07-2019 06:30:00 17.1 C 88 % 15.1 C
368 24-07-2019 06:35:00 17 C 88 % 15 C
369 24-07-2019 06:40:00 17 C 88 % 15 C
370 24-07-2019 06:45:00 17.1 C 89 % 15.27 C
371 24-07-2019 06:50:00 17.1 C 89 % 15.27 C
372 24-07-2019 06:55:00 17.1 C 89 % 15.27 C
373 24-07-2019 07:00:00 17.1 C 90 % 15.45 C
374 24-07-2019 07:05:00 17.1 C 90 % 15.45 C
375 24-07-2019 07:10:00 17.1 C 90 % 15.45 C
Sensor: Nr:Datum:Temp:Feuchte:Taupunkt:
Aussen-T/F 376 24-07-2019 07:15:00 17.1 C 90 % 15.45 C
377 24-07-2019 07:20:00 17.2 C 90 % 15.55 C
378 24-07-2019 07:25:00 17.2 C 90 % 15.55 C
379 24-07-2019 07:30:00 17.3 C 90 % 15.64 C
380 24-07-2019 07:35:00 17.3 C 90 % 15.64 C
381 24-07-2019 07:40:00 17.3 C 90 % 15.64 C
382 24-07-2019 07:45:00 17.4 C 90 % 15.74 C
383 24-07-2019 07:50:00 17.5 C 90 % 15.84 C
384 24-07-2019 07:55:00 17.6 C 90 % 15.94 C
385 24-07-2019 08:00:00 17.6 C 90 % 15.94 C
386 24-07-2019 08:05:00 17.7 C 90 % 16.04 C
387 24-07-2019 08:10:00 17.8 C 90 % 16.14 C
388 24-07-2019 08:15:00 18 C 89 % 16.16 C
389 24-07-2019 08:20:00 18.2 C 89 % 16.36 C
390 24-07-2019 08:25:00 18.3 C 89 % 16.46 C
391 24-07-2019 08:30:00 18.4 C 89 % 16.55 C
392 24-07-2019 08:35:00 18.5 C 88 % 16.48 C
393 24-07-2019 08:40:00 18.6 C 88 % 16.57 C
394 24-07-2019 08:45:00 18.8 C 88 % 16.77 C
395 24-07-2019 08:50:00 18.9 C 88 % 16.87 C
396 24-07-2019 08:55:00 19.1 C 88 % 17.07 C
397 24-07-2019 09:00:00 19.2 C 88 % 17.16 C
398 24-07-2019 09:05:00 19.3 C 88 % 17.26 C
399 24-07-2019 09:10:00 19.5 C 88 % 17.46 C
400 24-07-2019 09:15:00 19.6 C 87 % 17.38 C
Sensor: Nr:Datum:Temp:Feuchte:Taupunkt:
Aussen-T/F 401 24-07-2019 09:20:00 19.8 C 87 % 17.57 C
402 24-07-2019 09:25:00 20.1 C 86 % 17.68 C
403 24-07-2019 09:30:00 20.3 C 86 % 17.88 C
404 24-07-2019 09:35:00 20.5 C 85 % 17.89 C
405 24-07-2019 09:40:00 20.7 C 84 % 17.9 C
406 24-07-2019 09:45:00 20.9 C 83 % 17.9 C
407 24-07-2019 09:50:00 21.3 C 82 % 18.1 C
408 24-07-2019 09:55:00 21.6 C 80 % 18 C
409 24-07-2019 10:00:00 21.9 C 78 % 17.89 C
410 24-07-2019 10:05:00 22.3 C 79 % 18.48 C
411 24-07-2019 10:10:00 22.6 C 77 % 18.36 C
412 24-07-2019 10:15:00 22.8 C 75 % 18.14 C
413 24-07-2019 10:20:00 23.1 C 74 % 18.21 C
414 24-07-2019 10:25:00 23.6 C 73 % 18.48 C
415 24-07-2019 10:30:00 24 C 72 % 18.64 C
416 24-07-2019 10:35:00 24.3 C 71 % 18.7 C
417 24-07-2019 10:40:00 24.6 C 69 % 18.53 C
418 24-07-2019 10:45:00 24.9 C 67 % 18.35 C
419 24-07-2019 10:50:00 25.3 C 67 % 18.73 C
420 24-07-2019 10:55:00 25.6 C 67 % 19.01 C
421 24-07-2019 11:00:00 25.8 C 67 % 19.2 C
422 24-07-2019 11:05:00 26 C 64 % 18.66 C
423 24-07-2019 11:10:00 26.3 C 66 % 19.44 C
424 24-07-2019 11:15:00 26.6 C 65 % 19.48 C
425 24-07-2019 11:20:00 26.8 C 60 % 18.38 C
Sensor: Nr:Datum:Temp:Feuchte:Taupunkt:
Aussen-T/F 426 24-07-2019 11:25:00 27.1 C 60 % 18.66 C
427 24-07-2019 11:30:00 27.4 C 59 % 18.68 C
428 24-07-2019 11:35:00 27.9 C 58 % 18.87 C
429 24-07-2019 11:40:00 28.3 C 55 % 18.39 C
430 24-07-2019 11:45:00 28.6 C 54 % 18.38 C
431 24-07-2019 11:50:00 29 C 53 % 18.45 C
432 24-07-2019 11:55:00 29.4 C 53 % 18.82 C
433 24-07-2019 12:00:00 29.8 C 53 % 19.19 C
434 24-07-2019 12:05:00 30.3 C 48 % 18.06 C
435 24-07-2019 12:10:00 30.7 C 47 % 18.09 C
436 24-07-2019 12:15:00 31.2 C 44 % 17.49 C
437 24-07-2019 12:20:00 31.7 C 42 % 17.21 C
438 24-07-2019 12:25:00 32.1 C 43 % 17.94 C
439 24-07-2019 12:30:00 32.4 C 38 % 16.25 C
440 24-07-2019 12:35:00 32.8 C 37 % 16.19 C
441 24-07-2019 12:40:00 33 C 37 % 16.36 C
442 24-07-2019 12:45:00 33.3 C 38 % 17.05 C
443 24-07-2019 12:50:00 33.5 C 37 % 16.81 C
444 24-07-2019 12:55:00 33.7 C 36 % 16.55 C
445 24-07-2019 13:00:00 33.8 C 34 % 15.74 C
446 24-07-2019 13:05:00 33.9 C 31 % 14.39 C
447 24-07-2019 13:10:00 33.9 C 30 % 13.89 C
448 24-07-2019 13:15:00 33.9 C 31 % 14.39 C
449 24-07-2019 13:20:00 34 C 30 % 13.97 C
450 24-07-2019 13:25:00 34.1 C 29 % 13.54 C
Sensor: Nr:Datum:Temp:Feuchte:Taupunkt:
Aussen-T/F 451 24-07-2019 13:30:00 34.2 C 28 % 13.08 C
452 24-07-2019 13:35:00 34.3 C 29 % 13.71 C
453 24-07-2019 13:40:00 34.3 C 27 % 12.61 C
454 24-07-2019 13:45:00 34.4 C 27 % 12.7 C
455 24-07-2019 13:50:00 34.6 C 27 % 12.87 C
456 24-07-2019 13:55:00 34.7 C 26 % 12.38 C
457 24-07-2019 14:00:00 34.8 C 27 % 13.04 C
458 24-07-2019 14:05:00 34.8 C 26 % 12.46 C
459 24-07-2019 14:10:00 34.9 C 27 % 13.12 C
460 24-07-2019 14:15:00 35 C 27 % 13.21 C
461 24-07-2019 14:20:00 35.1 C 26 % 12.71 C
462 24-07-2019 14:25:00 35.3 C 27 % 13.46 C
463 24-07-2019 14:30:00 35.3 C 26 % 12.88 C
464 24-07-2019 14:35:00 35.5 C 26 % 13.05 C
465 24-07-2019 14:40:00 35.6 C 28 % 14.27 C
466 24-07-2019 14:45:00 35.8 C 27 % 13.88 C
467 24-07-2019 14:50:00 35.8 C 27 % 13.88 C
468 24-07-2019 14:55:00 35.9 C 28 % 14.53 C
469 24-07-2019 15:00:00 35.9 C 28 % 14.53 C
470 24-07-2019 15:05:00 36.1 C 30 % 15.77 C
471 24-07-2019 15:10:00 36.2 C 28 % 14.78 C
472 24-07-2019 15:15:00 36.3 C 27 % 14.31 C
473 24-07-2019 15:20:00 36.3 C 26 % 13.72 C
474 24-07-2019 15:25:00 36.4 C 25 % 13.21 C
475 24-07-2019 15:30:00 36.8 C 25 % 13.54 C
Sensor: Nr:Datum:Temp:Feuchte:Taupunkt:
Aussen-T/F 476 24-07-2019 15:35:00 37.2 C 23 % 12.6 C
477 24-07-2019 15:40:00 37.4 C 24 % 13.42 C
478 24-07-2019 15:45:00 37.9 C 26 % 15.07 C
479 24-07-2019 15:50:00 38.4 C 25 % 14.88 C
480 24-07-2019 15:55:00 38.8 C 25 % 15.22 C
481 24-07-2019 16:00:00 39.2 C 23 % 14.26 C
482 24-07-2019 16:05:00 39.3 C 22 % 13.65 C
483 24-07-2019 16:10:00 39.4 C 23 % 14.42 C
484 24-07-2019 16:15:00 39.4 C 25 % 15.72 C
485 24-07-2019 16:20:00 39.5 C 25 % 15.8 C
486 24-07-2019 16:25:00 39.7 C 24 % 15.33 C
487 24-07-2019 16:30:00 39.8 C 22 % 14.06 C
488 24-07-2019 16:35:00 39.7 C 22 % 13.98 C
489 24-07-2019 16:40:00 39.6 C 22 % 13.9 C
490 24-07-2019 16:45:00 39.7 C 23 % 14.67 C
491 24-07-2019 16:50:00 39.9 C 22 % 14.15 C
492 24-07-2019 16:55:00 39.9 C 24 % 15.5 C
493 24-07-2019 17:00:00 39.9 C 23 % 14.83 C
494 24-07-2019 17:05:00 40.1 C 27 % 17.52 C
495 24-07-2019 17:10:00 39.9 C 21 % 13.43 C
496 24-07-2019 17:15:00 39.9 C 23 % 14.83 C
497 24-07-2019 17:20:00 40 C 22 % 14.23 C
498 24-07-2019 17:25:00 39.9 C 22 % 14.15 C
499 24-07-2019 17:30:00 39.8 C 22 % 14.06 C
500 24-07-2019 17:35:00 39.5 C 23 % 14.5 C
Sensor: Nr:Datum:Temp:Feuchte:Taupunkt:
Aussen-T/F 501 24-07-2019 17:40:00 39.3 C 22 % 13.65 C
502 24-07-2019 17:45:00 39 C 23 % 14.09 C
503 24-07-2019 17:50:00 38.9 C 23 % 14.01 C
504 24-07-2019 17:55:00 39.1 C 24 % 14.83 C
505 24-07-2019 18:00:00 39.4 C 23 % 14.42 C
506 24-07-2019 18:05:00 39.6 C 24 % 15.25 C
507 24-07-2019 18:10:00 39.8 C 22 % 14.06 C
508 24-07-2019 18:15:00 39.8 C 22 % 14.06 C
509 24-07-2019 18:20:00 39.4 C 22 % 13.74 C
510 24-07-2019 18:25:00 39.2 C 23 % 14.26 C
511 24-07-2019 18:30:00 39.2 C 22 % 13.57 C
512 24-07-2019 18:35:00 39.2 C 23 % 14.26 C
513 24-07-2019 18:40:00 39.1 C 23 % 14.17 C
514 24-07-2019 18:45:00 39.1 C 22 % 13.49 C
515 24-07-2019 18:50:00 39.1 C 23 % 14.17 C
516 24-07-2019 18:55:00 38.9 C 23 % 14.01 C
517 24-07-2019 19:00:00 38.8 C 22 % 13.24 C
518 24-07-2019 19:05:00 38.7 C 23 % 13.84 C
519 24-07-2019 19:10:00 38.6 C 27 % 16.25 C
520 24-07-2019 19:15:00 38.7 C 26 % 15.74 C
521 24-07-2019 19:20:00 38.8 C 23 % 13.92 C
522 24-07-2019 19:25:00 38.8 C 28 % 16.99 C
523 24-07-2019 19:30:00 38.7 C 29 % 17.46 C
524 24-07-2019 19:35:00 38.7 C 30 % 18 C
525 24-07-2019 19:40:00 38.4 C 31 % 18.26 C
Sensor: Nr:Datum:Temp:Feuchte:Taupunkt:
Aussen-T/F 526 24-07-2019 19:45:00 38.2 C 30 % 17.57 C
527 24-07-2019 19:50:00 37.9 C 31 % 17.83 C
528 24-07-2019 19:55:00 37.6 C 31 % 17.58 C
529 24-07-2019 20:00:00 37.1 C 34 % 18.61 C
530 24-07-2019 20:05:00 36.4 C 33 % 17.53 C
531 24-07-2019 20:10:00 35.6 C 34 % 17.31 C
532 24-07-2019 20:15:00 34.8 C 35 % 17.07 C
533 24-07-2019 20:20:00 33.9 C 38 % 17.58 C
534 24-07-2019 20:25:00 33.1 C 40 % 17.68 C
535 24-07-2019 20:30:00 32.4 C 42 % 17.83 C
536 24-07-2019 20:35:00 31.7 C 44 % 17.94 C
537 24-07-2019 20:40:00 31.2 C 44 % 17.49 C
538 24-07-2019 20:45:00 30.8 C 45 % 17.49 C
539 24-07-2019 20:50:00 30.4 C 45 % 17.13 C
540 24-07-2019 20:55:00 30.2 C 46 % 17.3 C
541 24-07-2019 21:00:00 29.9 C 47 % 17.36 C
542 24-07-2019 21:05:00 29.7 C 47 % 17.18 C
543 24-07-2019 21:10:00 29.4 C 48 % 17.24 C
544 24-07-2019 21:15:00 29.2 C 48 % 17.06 C
545 24-07-2019 21:20:00 29 C 49 % 17.2 C
546 24-07-2019 21:25:00 28.8 C 49 % 17.02 C
547 24-07-2019 21:30:00 28.7 C 49 % 16.93 C
548 24-07-2019 21:35:00 28.5 C 50 % 17.06 C
549 24-07-2019 21:40:00 28.3 C 49 % 16.56 C
550 24-07-2019 21:45:00 28.2 C 50 % 16.79 C
Sensor: Nr:Datum:Temp:Feuchte:Taupunkt:
Aussen-T/F 551 24-07-2019 21:50:00 28.1 C 50 % 16.7 C
552 24-07-2019 21:55:00 28.1 C 50 % 16.7 C
553 24-07-2019 22:00:00 27.9 C 50 % 16.51 C
554 24-07-2019 22:05:00 27.8 C 51 % 16.73 C
555 24-07-2019 22:10:00 27.8 C 51 % 16.73 C
556 24-07-2019 22:15:00 27.7 C 51 % 16.64 C
557 24-07-2019 22:20:00 27.6 C 51 % 16.55 C
558 24-07-2019 22:25:00 27.4 C 52 % 16.67 C
559 24-07-2019 22:30:00 27.3 C 52 % 16.58 C
560 24-07-2019 22:35:00 27.2 C 53 % 16.79 C
561 24-07-2019 22:40:00 27.1 C 53 % 16.7 C
562 24-07-2019 22:45:00 27 C 53 % 16.6 C
563 24-07-2019 22:50:00 26.9 C 53 % 16.51 C
564 24-07-2019 22:55:00 26.8 C 54 % 16.71 C
565 24-07-2019 23:00:00 26.8 C 54 % 16.71 C
566 24-07-2019 23:05:00 26.6 C 55 % 16.82 C
567 24-07-2019 23:10:00 26.4 C 56 % 16.92 C
568 24-07-2019 23:15:00 26.2 C 57 % 17.01 C
569 24-07-2019 23:20:00 25.9 C 58 % 17 C
570 24-07-2019 23:25:00 25.7 C 58 % 16.82 C
571 24-07-2019 23:30:00 25.4 C 58 % 16.54 C
572 24-07-2019 23:35:00 25.2 C 58 % 16.35 C
573 24-07-2019 23:40:00 25 C 60 % 16.7 C
574 24-07-2019 23:45:00 24.8 C 61 % 16.77 C
575 24-07-2019 23:50:00 24.6 C 62 % 16.84 C
Sensor: Nr:Datum:Temp:Feuchte:Taupunkt:
Aussen-T/F 576 24-07-2019 23:55:00 24.4 C 63 % 16.9 C
577 25-07-2019 00:00:00 24.3 C 62 % 16.55 C
578 25-07-2019 00:05:00 24 C 61 % 16.02 C
579 25-07-2019 00:10:00 23.9 C 63 % 16.43 C
580 25-07-2019 00:15:00 23.9 C 63 % 16.43 C
581 25-07-2019 00:20:00 23.8 C 63 % 16.33 C
582 25-07-2019 00:25:00 23.7 C 62 % 15.99 C
583 25-07-2019 00:30:00 23.6 C 62 % 15.89 C
584 25-07-2019 00:35:00 23.6 C 64 % 16.39 C
585 25-07-2019 00:40:00 23.4 C 64 % 16.2 C
586 25-07-2019 00:45:00 23.3 C 63 % 15.86 C
587 25-07-2019 00:50:00 23.4 C 64 % 16.2 C
588 25-07-2019 00:55:00 23.3 C 66 % 16.59 C
589 25-07-2019 01:00:00 23.2 C 65 % 16.26 C
590 25-07-2019 01:05:00 23.1 C 65 % 16.16 C
591 25-07-2019 01:10:00 22.9 C 66 % 16.21 C
592 25-07-2019 01:15:00 22.7 C 66 % 16.02 C
593 25-07-2019 01:20:00 22.6 C 67 % 16.16 C
594 25-07-2019 01:25:00 22.4 C 66 % 15.74 C
595 25-07-2019 01:30:00 22.3 C 67 % 15.88 C
596 25-07-2019 01:35:00 22.3 C 65 % 15.4 C
597 25-07-2019 01:40:00 22.3 C 68 % 16.11 C
598 25-07-2019 01:45:00 22.3 C 68 % 16.11 C
599 25-07-2019 01:50:00 22.2 C 68 % 16.01 C
600 25-07-2019 01:55:00 22.1 C 68 % 15.92 C
Sensor: Nr:Datum:Temp:Feuchte:Taupunkt:
Aussen-T/F 601 25-07-2019 02:00:00 22 C 69 % 16.05 C
602 25-07-2019 02:05:00 21.9 C 70 % 16.18 C
603 25-07-2019 02:10:00 21.8 C 70 % 16.09 C
604 25-07-2019 02:15:00 21.7 C 70 % 15.99 C
605 25-07-2019 02:20:00 21.7 C 70 % 15.99 C
606 25-07-2019 02:25:00 21.7 C 71 % 16.21 C
607 25-07-2019 02:30:00 21.6 C 70 % 15.89 C
608 25-07-2019 02:35:00 21.5 C 70 % 15.8 C
609 25-07-2019 02:40:00 21.4 C 71 % 15.93 C
610 25-07-2019 02:45:00 21.4 C 71 % 15.93 C
611 25-07-2019 02:50:00 21.3 C 72 % 16.05 C
612 25-07-2019 02:55:00 21.2 C 72 % 15.95 C
613 25-07-2019 03:00:00 21.2 C 72 % 15.95 C
614 25-07-2019 03:05:00 21.2 C 73 % 16.17 C
615 25-07-2019 03:10:00 21.2 C 73 % 16.17 C
616 25-07-2019 03:15:00 21.1 C 73 % 16.07 C
617 25-07-2019 03:20:00 20.9 C 74 % 16.09 C
618 25-07-2019 03:25:00 20.8 C 74 % 16 C
619 25-07-2019 03:30:00 20.8 C 74 % 16 C
620 25-07-2019 03:35:00 20.8 C 74 % 16 C
621 25-07-2019 03:40:00 20.8 C 74 % 16 C
622 25-07-2019 03:45:00 20.7 C 75 % 16.11 C
623 25-07-2019 03:50:00 20.6 C 75 % 16.01 C
624 25-07-2019 03:55:00 20.6 C 76 % 16.22 C
625 25-07-2019 04:00:00 20.4 C 76 % 16.03 C
Sensor: Nr:Datum:Temp:Feuchte:Taupunkt:
Aussen-T/F 626 25-07-2019 04:05:00 20.3 C 76 % 15.93 C
627 25-07-2019 04:10:00 20.2 C 77 % 16.04 C
628 25-07-2019 04:15:00 20.1 C 77 % 15.94 C
629 25-07-2019 04:20:00 19.9 C 78 % 15.95 C
630 25-07-2019 04:25:00 20.1 C 78 % 16.14 C
631 25-07-2019 04:30:00 20.1 C 78 % 16.14 C
632 25-07-2019 04:35:00 20.1 C 78 % 16.14 C
633 25-07-2019 04:40:00 20.1 C 78 % 16.14 C
634 25-07-2019 04:45:00 19.9 C 79 % 16.15 C
635 25-07-2019 04:50:00 19.9 C 79 % 16.15 C
636 25-07-2019 04:55:00 19.8 C 79 % 16.05 C
637 25-07-2019 05:00:00 19.7 C 79 % 15.96 C
638 25-07-2019 05:05:00 19.6 C 79 % 15.86 C
639 25-07-2019 05:10:00 19.6 C 80 % 16.06 C
640 25-07-2019 05:15:00 19.4 C 80 % 15.86 C
641 25-07-2019 05:20:00 19.4 C 80 % 15.86 C
642 25-07-2019 05:25:00 19.3 C 80 % 15.76 C
643 25-07-2019 05:30:00 19.3 C 80 % 15.76 C
644 25-07-2019 05:35:00 19.3 C 80 % 15.76 C
645 25-07-2019 05:40:00 19.2 C 80 % 15.67 C
646 25-07-2019 05:45:00 19.2 C 80 % 15.67 C
647 25-07-2019 05:50:00 19.2 C 81 % 15.86 C
648 25-07-2019 05:55:00 19.1 C 81 % 15.76 C
649 25-07-2019 06:00:00 19.1 C 82 % 15.96 C
650 25-07-2019 06:05:00 19.1 C 82 % 15.96 C
Sensor: Nr:Datum:Temp:Feuchte:Taupunkt:
Aussen-T/F 651 25-07-2019 06:10:00 19.1 C 82 % 15.96 C
652 25-07-2019 06:15:00 19.2 C 82 % 16.05 C
653 25-07-2019 06:20:00 19.2 C 82 % 16.05 C
654 25-07-2019 06:25:00 19.1 C 82 % 15.96 C
655 25-07-2019 06:30:00 19.2 C 82 % 16.05 C
656 25-07-2019 06:35:00 19.2 C 82 % 16.05 C
657 25-07-2019 06:40:00 19.2 C 82 % 16.05 C
658 25-07-2019 06:45:00 19.3 C 83 % 16.34 C
659 25-07-2019 06:50:00 19.3 C 83 % 16.34 C
660 25-07-2019 06:55:00 19.3 C 83 % 16.34 C
661 25-07-2019 07:00:00 19.3 C 83 % 16.34 C
662 25-07-2019 07:05:00 19.3 C 83 % 16.34 C
663 25-07-2019 07:10:00 19.4 C 84 % 16.63 C
664 25-07-2019 07:15:00 19.4 C 84 % 16.63 C
665 25-07-2019 07:20:00 19.4 C 84 % 16.63 C
666 25-07-2019 07:25:00 19.5 C 84 % 16.72 C
667 25-07-2019 07:30:00 19.6 C 84 % 16.82 C
668 25-07-2019 07:35:00 19.6 C 84 % 16.82 C
669 25-07-2019 07:40:00 19.7 C 84 % 16.92 C
670 25-07-2019 07:45:00 19.8 C 84 % 17.02 C
671 25-07-2019 07:50:00 19.8 C 84 % 17.02 C
672 25-07-2019 07:55:00 19.9 C 84 % 17.12 C
673 25-07-2019 08:00:00 20 C 83 % 17.02 C
674 25-07-2019 08:05:00 20.1 C 84 % 17.31 C
675 25-07-2019 08:10:00 20.2 C 83 % 17.22 C
Sensor: Nr:Datum:Temp:Feuchte:Taupunkt:
Aussen-T/F 676 25-07-2019 08:15:00 20.3 C 82 % 17.13 C
677 25-07-2019 08:20:00 20.5 C 83 % 17.51 C
678 25-07-2019 08:25:00 20.7 C 83 % 17.71 C
679 25-07-2019 08:30:00 20.8 C 83 % 17.81 C
680 25-07-2019 08:35:00 20.9 C 82 % 17.71 C
681 25-07-2019 08:40:00 21.1 C 83 % 18.1 C
682 25-07-2019 08:45:00 21.2 C 83 % 18.2 C
683 25-07-2019 08:50:00 21.4 C 82 % 18.2 C
684 25-07-2019 08:55:00 21.6 C 82 % 18.39 C
685 25-07-2019 09:00:00 21.7 C 81 % 18.3 C
686 25-07-2019 09:05:00 21.8 C 79 % 18 C
687 25-07-2019 09:10:00 22.1 C 81 % 18.69 C
688 25-07-2019 09:15:00 22.2 C 81 % 18.78 C
689 25-07-2019 09:20:00 22.3 C 78 % 18.28 C
690 25-07-2019 09:25:00 22.6 C 78 % 18.57 C
691 25-07-2019 09:30:00 22.8 C 77 % 18.56 C
692 25-07-2019 09:35:00 23.1 C 77 % 18.85 C
693 25-07-2019 09:40:00 23.3 C 75 % 18.62 C
694 25-07-2019 09:45:00 23.5 C 74 % 18.6 C
695 25-07-2019 09:50:00 23.7 C 72 % 18.35 C
696 25-07-2019 09:55:00 24 C 70 % 18.19 C
697 25-07-2019 10:00:00 24.3 C 70 % 18.48 C
698 25-07-2019 10:05:00 24.6 C 71 % 18.99 C
699 25-07-2019 10:10:00 24.9 C 70 % 19.05 C
700 25-07-2019 10:15:00 25.1 C 69 % 19.01 C
Sensor: Nr:Datum:Temp:Feuchte:Taupunkt:
Aussen-T/F 701 25-07-2019 10:20:00 25.3 C 68 % 18.97 C
702 25-07-2019 10:25:00 25.6 C 69 % 19.49 C
703 25-07-2019 10:30:00 25.9 C 67 % 19.3 C
704 25-07-2019 10:35:00 26.2 C 65 % 19.1 C
705 25-07-2019 10:40:00 26.6 C 63 % 18.97 C
706 25-07-2019 10:45:00 26.9 C 62 % 19 C
707 25-07-2019 10:50:00 27.2 C 63 % 19.54 C
708 25-07-2019 10:55:00 27.5 C 63 % 19.82 C
709 25-07-2019 11:00:00 27.8 C 61 % 19.59 C
710 25-07-2019 11:05:00 28.2 C 60 % 19.69 C
711 25-07-2019 11:10:00 28.6 C 56 % 18.96 C
712 25-07-2019 11:15:00 29.1 C 58 % 19.99 C
713 25-07-2019 11:20:00 29.4 C 54 % 19.12 C
714 25-07-2019 11:25:00 29.8 C 55 % 19.78 C
715 25-07-2019 11:30:00 30.1 C 54 % 19.76 C
716 25-07-2019 11:35:00 30.5 C 53 % 19.83 C
717 25-07-2019 11:40:00 30.8 C 50 % 19.17 C
718 25-07-2019 11:45:00 31.2 C 48 % 18.88 C
719 25-07-2019 11:50:00 31.6 C 47 % 18.91 C
720 25-07-2019 11:55:00 32.1 C 44 % 18.3 C
721 25-07-2019 12:00:00 32.6 C 41 % 17.63 C
722 25-07-2019 12:05:00 33 C 40 % 17.59 C
723 25-07-2019 12:10:00 33.4 C 38 % 17.14 C
724 25-07-2019 12:15:00 33.8 C 38 % 17.49 C
725 25-07-2019 12:20:00 34.3 C 35 % 16.63 C
Sensor: Nr:Datum:Temp:Feuchte:Taupunkt:
Aussen-T/F 726 25-07-2019 12:25:00 34.7 C 35 % 16.98 C
727 25-07-2019 12:30:00 34.9 C 35 % 17.16 C
728 25-07-2019 12:35:00 35.2 C 33 % 16.49 C
729 25-07-2019 12:40:00 35.3 C 33 % 16.58 C
730 25-07-2019 12:45:00 35.5 C 33 % 16.75 C
731 25-07-2019 12:50:00 35.7 C 33 % 16.92 C
732 25-07-2019 12:55:00 35.9 C 31 % 16.11 C
733 25-07-2019 13:00:00 36 C 32 % 16.7 C
734 25-07-2019 13:05:00 36.1 C 32 % 16.79 C
735 25-07-2019 13:10:00 36.2 C 32 % 16.87 C
736 25-07-2019 13:15:00 36.3 C 32 % 16.96 C
737 25-07-2019 13:20:00 36.3 C 30 % 15.94 C
738 25-07-2019 13:25:00 36.4 C 31 % 16.54 C
739 25-07-2019 13:30:00 36.4 C 31 % 16.54 C
740 25-07-2019 13:35:00 36.6 C 31 % 16.72 C
741 25-07-2019 13:40:00 36.7 C 31 % 16.8 C
742 25-07-2019 13:45:00 36.8 C 30 % 16.37 C
743 25-07-2019 13:50:00 36.9 C 31 % 16.97 C
744 25-07-2019 13:55:00 36.9 C 29 % 15.93 C
745 25-07-2019 14:00:00 36.9 C 30 % 16.46 C
746 25-07-2019 14:05:00 37.1 C 30 % 16.63 C
747 25-07-2019 14:10:00 37.2 C 29 % 16.18 C
748 25-07-2019 14:15:00 37.3 C 30 % 16.8 C
749 25-07-2019 14:20:00 37.4 C 29 % 16.35 C
750 25-07-2019 14:25:00 37.4 C 27 % 15.24 C
Sensor: Nr:Datum:Temp:Feuchte:Taupunkt:
Aussen-T/F 751 25-07-2019 14:30:00 37.4 C 30 % 16.89 C
752 25-07-2019 14:35:00 37.6 C 28 % 15.97 C
753 25-07-2019 14:40:00 37.6 C 29 % 16.52 C
754 25-07-2019 14:45:00 37.7 C 27 % 15.49 C
755 25-07-2019 14:50:00 37.7 C 29 % 16.61 C
756 25-07-2019 14:55:00 37.8 C 28 % 16.14 C
757 25-07-2019 15:00:00 37.9 C 28 % 16.23 C
758 25-07-2019 15:05:00 38.2 C 28 % 16.48 C
759 25-07-2019 15:10:00 38.3 C 28 % 16.57 C
760 25-07-2019 15:15:00 38.5 C 27 % 16.16 C
761 25-07-2019 15:20:00 38.7 C 26 % 15.74 C
762 25-07-2019 15:25:00 38.8 C 26 % 15.83 C
763 25-07-2019 15:30:00 38.9 C 26 % 15.91 C
764 25-07-2019 15:35:00 38.7 C 26 % 15.74 C
765 25-07-2019 15:40:00 38.8 C 26 % 15.83 C
766 25-07-2019 15:45:00 39.2 C 25 % 15.55 C
767 25-07-2019 15:50:00 39.6 C 26 % 16.5 C
768 25-07-2019 15:55:00 39.9 C 24 % 15.5 C
769 25-07-2019 16:00:00 40.1 C 23 % 15 C
770 25-07-2019 16:05:00 40.2 C 24 % 15.75 C
771 25-07-2019 16:10:00 40.2 C 25 % 16.39 C
772 25-07-2019 16:15:00 40.3 C 23 % 15.17 C
773 25-07-2019 16:20:00 40.4 C 24 % 15.91 C
774 25-07-2019 16:25:00 40.4 C 25 % 16.55 C
775 25-07-2019 16:30:00 40.4 C 23 % 15.25 C
Sensor: Nr:Datum:Temp:Feuchte:Taupunkt:
Aussen-T/F 776 25-07-2019 16:35:00 40.3 C 23 % 15.17 C
777 25-07-2019 16:40:00 40 C 23 % 14.92 C
778 25-07-2019 16:45:00 39.9 C 23 % 14.83 C
779 25-07-2019 16:50:00 39.9 C 25 % 16.13 C
780 25-07-2019 16:55:00 39.7 C 23 % 14.67 C
781 25-07-2019 17:00:00 39.8 C 24 % 15.41 C
782 25-07-2019 17:05:00 39.9 C 24 % 15.5 C
783 25-07-2019 17:10:00 40.3 C 23 % 15.17 C
784 25-07-2019 17:15:00 40.3 C 22 % 14.48 C
785 25-07-2019 17:20:00 40.1 C 22 % 14.31 C
786 25-07-2019 17:25:00 39.9 C 22 % 14.15 C
787 25-07-2019 17:30:00 39.6 C 22 % 13.9 C
788 25-07-2019 17:35:00 39.5 C 22 % 13.82 C
789 25-07-2019 17:40:00 39.5 C 22 % 13.82 C
790 25-07-2019 17:45:00 39.5 C 22 % 13.82 C
791 25-07-2019 17:50:00 39.6 C 23 % 14.59 C
792 25-07-2019 17:55:00 39.7 C 23 % 14.67 C
793 25-07-2019 18:00:00 39.6 C 23 % 14.59 C
794 25-07-2019 18:05:00 39.4 C 23 % 14.42 C
795 25-07-2019 18:10:00 39.4 C 22 % 13.74 C
796 25-07-2019 18:15:00 39.4 C 23 % 14.42 C
797 25-07-2019 18:20:00 39.3 C 22 % 13.65 C
798 25-07-2019 18:25:00 39.3 C 23 % 14.34 C
799 25-07-2019 18:30:00 39.2 C 23 % 14.26 C
800 25-07-2019 18:35:00 39.1 C 23 % 14.17 C
Sensor: Nr:Datum:Temp:Feuchte:Taupunkt:
Aussen-T/F 801 25-07-2019 18:40:00 38.8 C 23 % 13.92 C
802 25-07-2019 18:45:00 38.6 C 24 % 14.42 C
803 25-07-2019 18:50:00 38.6 C 24 % 14.42 C
804 25-07-2019 18:55:00 38.4 C 29 % 17.2 C
805 25-07-2019 19:00:00 38.3 C 25 % 14.8 C
806 25-07-2019 19:05:00 38.2 C 31 % 18.09 C
807 25-07-2019 19:10:00 38 C 28 % 16.31 C
808 25-07-2019 19:15:00 37.8 C 33 % 18.74 C
809 25-07-2019 19:20:00 37.4 C 32 % 17.91 C
810 25-07-2019 19:25:00 37 C 33 % 18.05 C
811 25-07-2019 19:30:00 36.6 C 33 % 17.7 C
812 25-07-2019 19:35:00 36.2 C 35 % 18.29 C
813 25-07-2019 19:40:00 35.7 C 36 % 18.3 C
814 25-07-2019 19:45:00 35.3 C 39 % 19.23 C
815 25-07-2019 19:50:00 34.9 C 38 % 18.46 C
816 25-07-2019 19:55:00 34.6 C 38 % 18.2 C
817 25-07-2019 20:00:00 34.3 C 41 % 19.15 C
818 25-07-2019 20:05:00 33.9 C 41 % 18.79 C
819 25-07-2019 20:10:00 33.7 C 40 % 18.22 C
820 25-07-2019 20:15:00 33.4 C 40 % 17.95 C
821 25-07-2019 20:20:00 33.2 C 42 % 18.55 C
822 25-07-2019 20:25:00 32.9 C 41 % 17.9 C
823 25-07-2019 20:30:00 32.7 C 42 % 18.1 C
824 25-07-2019 20:35:00 32.4 C 42 % 17.83 C
825 25-07-2019 20:40:00 32.2 C 43 % 18.03 C
Sensor: Nr:Datum:Temp:Feuchte:Taupunkt:
Aussen-T/F 826 25-07-2019 20:45:00 31.9 C 43 % 17.76 C
827 25-07-2019 20:50:00 31.7 C 44 % 17.94 C
828 25-07-2019 20:55:00 31.5 C 43 % 17.4 C
829 25-07-2019 21:00:00 31.3 C 44 % 17.58 C
830 25-07-2019 21:05:00 31.1 C 44 % 17.4 C
831 25-07-2019 21:10:00 30.9 C 45 % 17.58 C
832 25-07-2019 21:15:00 30.7 C 44 % 17.04 C
833 25-07-2019 21:20:00 30.5 C 44 % 16.86 C
834 25-07-2019 21:25:00 30.3 C 45 % 17.04 C
835 25-07-2019 21:30:00 30.2 C 45 % 16.95 C
836 25-07-2019 21:35:00 30.1 C 45 % 16.86 C
837 25-07-2019 21:40:00 29.9 C 45 % 16.68 C
838 25-07-2019 21:45:00 29.8 C 45 % 16.59 C
839 25-07-2019 21:50:00 29.7 C 45 % 16.5 C
840 25-07-2019 21:55:00 29.6 C 45 % 16.41 C
841 25-07-2019 22:00:00 29.4 C 45 % 16.23 C
842 25-07-2019 22:05:00 29.3 C 46 % 16.48 C
843 25-07-2019 22:10:00 29.2 C 46 % 16.39 C
844 25-07-2019 22:15:00 29.1 C 47 % 16.64 C
845 25-07-2019 22:20:00 28.9 C 46 % 16.12 C
846 25-07-2019 22:25:00 28.8 C 48 % 16.69 C
847 25-07-2019 22:30:00 28.7 C 48 % 16.6 C
848 25-07-2019 22:35:00 28.5 C 48 % 16.42 C
849 25-07-2019 22:40:00 28.4 C 48 % 16.33 C
850 25-07-2019 22:45:00 28.3 C 48 % 16.24 C
Sensor: Nr:Datum:Temp:Feuchte:Taupunkt:
Aussen-T/F 851 25-07-2019 22:50:00 28.3 C 49 % 16.56 C
852 25-07-2019 22:55:00 28.2 C 48 % 16.15 C
853 25-07-2019 23:00:00 28.1 C 49 % 16.38 C
854 25-07-2019 23:05:00 28 C 48 % 15.97 C
855 25-07-2019 23:10:00 27.9 C 49 % 16.2 C
856 25-07-2019 23:15:00 27.8 C 48 % 15.78 C
857 25-07-2019 23:20:00 27.8 C 49 % 16.11 C
858 25-07-2019 23:25:00 27.7 C 50 % 16.33 C
859 25-07-2019 23:30:00 27.6 C 49 % 15.92 C
860 25-07-2019 23:35:00 27.4 C 50 % 16.06 C
861 25-07-2019 23:40:00 27.3 C 50 % 15.97 C
862 25-07-2019 23:45:00 27.2 C 50 % 15.87 C
863 25-07-2019 23:50:00 27.1 C 51 % 16.09 C
864 25-07-2019 23:55:00 26.9 C 53 % 16.51 C

Legende:
   Min
   Max


Maximal/Minimal-Werte vom 23.07.2019 - 25.07.2019

Sensor Min Max Avg
Temp
(Aussen-T/F)
15.6 °C
23-07-2019  05:50:00
40.4 °C
25-07-2019  16:20:00
26.93 °C
Feuchte
(Aussen-T/F)
21 %
24-07-2019  17:10:00
91 %
23-07-2019  06:10:00
57.6 %
Taupunkt
(Aussen-T/F)
12.38 C
24-07-2019  13:55:00
19.99 C
25-07-2019  11:15:00
16.04 C

Die Daten stammen von einer Davis Vantage Pro 2 Wetter-Station und werden unter Linux mit der Software wview2wettercgi und aufbereitet. Alle Angaben erfolgen ohne Gewähr für ihre Vollständigkeit oder Richtigkeit.
Kontakt: Rainer Krienke krienke@uni-koblenz.de . Meine Webseiten an der Uni Koblenz oder privat.
Version: $Revision: 0.78 $